Regional Weather Roundup
Issued by NWS

Home | Current Version | Previous Version | Text Only | Print | Product List | Glossary Off
Versions: 1 2 3 4 5 6 7 8 9 10 11 12 13 14 15 16 17 18 19 20 21 22 23 24 25 26 27 28 29 30 31 32 33 34 35 36 37 38 39 40 41 42 43 44 45 46 47 48 49 50

000
ASUS45 KTFX 252104
RWRMT
MONTANA HOURLY WEATHER ROUNDUP
NATIONAL WEATHER SERVICE GREAT FALLS MT
204 PM MST TUE NOV 25 2014

NOTE: "FAIR" INDICATES FEW OR NO CLOUDS BELOW 12000 FEET WITH NO
SIGNIFICANT WEATHER AND/OR OBSTRUCTIONS TO VISIBILITY.

* THESE STATIONS ARE NOT UNDER NWS QUALITY CONTROL. THEY DO NOT
   REPORT WEATHER SUCH AS PRECIPITATION OR FOG.

MTZ001>007-043-252200-
WEST OF THE DIVIDE
CITY           SKY/WX    TMP DP  RH WIND       PRES   REMARKS
KALISPELL      FOG       36  34  92 CALM      30.07S
MISSOULA       LGT RAIN  36  34  92 NW7       30.13R WCI  30
BUTTE          SNOW      32  30  92 NW7       30.02R VSB 1/2  WCI  25
MULLAN PASS    SNOW      30  27  89 N3        30.07S VSB M1/4
* ESSEX        N/A       36  32  85 N/A        N/A
* LINCOLN      N/A       35  32  89 SW3G9      N/A
* LOOKOUT PASS N/A       31  31 100 N6         N/A   WCI  25
* POLSON       N/A       37  36  96 SW3        N/A
* RONAN APT    CLOUDY    37  36  96 SE9        N/A   WCI  30
* SEELEY LAKE  N/A       33  30  89 NW6G12     N/A   WCI  27
* THOMP F APT  CLOUDY    31  26  82 NE5        N/A   WCI  26
* YAAK HILL    N/A       36  34  92 N/A        N/A
$$

MTZ008-052>055-252200-
SOUTHWEST MONTANA
CITY           SKY/WX    TMP DP  RH WIND       PRES   REMARKS
BOZEMAN        LGT SNOW  36  32  85 N16       30.03R WCI  26
DILLON         CLOUDY    43  34  71 W15       30.00R
* W YELLOWSTON CLOUDY    29  26  89 SW6G14     N/A   WCI  23
* ENNIS APT    CLOUDY    37  34  89 SE11       N/A   WCI  29
* THREE FORKS  CLOUDY    41  41 100 NW10G16    N/A
* BOULDER HILL N/A       31  27  85 N12G17     N/A   WCI  22
* MONIDA PASS  N/A       28  26  92 SE12       N/A   WCI  18
* RAYNOLDS PAS N/A       27  10  49 SE9G15     N/A   WCI  18
* WHITEHALL    N/A       40  36  86 NW6G12     N/A   WCI  36
* WISE RIVER   N/A       35  32  89 NW7G16     N/A   WCI  29
$$

MTZ009>010-012-014-046-048-049-054-252200-
EAST SLOPES AND CENTRAL MONTANA
CITY           SKY/WX    TMP DP  RH WIND       PRES   REMARKS
CUT BANK       CLOUDY    36  19  50 N8        30.05R WCI  30
GREAT FALLS    CLOUDY    34  25  70 NW6       30.06R WCI  29
HELENA         CLOUDY    39  34  82 W9        30.03R WCI  33
MALMSTROM AFB  LGT RAIN  36  25  64 NW6       30.08R WCI  31
* DEARBORN     N/A       34  28  79 N/A        N/A
* EAST GLACIER N/A       30  20  66 E4         N/A
* MONARCH      N/A       24  21  88 NW15       N/A   WCI  11
* PENDROY      N/A       33  21  61 N8         N/A   WCI  26
* ROGERS PASS  N/A       28  25  89 SW1        N/A
* SAINT MARY   N/A       33  21  61 N4G9       N/A
* SWEET GRASS  N/A       32  22  67 VRB17      N/A   WCI  21
$$

MTZ011-013-016-021-035-040-045-047-050-051-252200-
NORTH CENTRAL MONTANA
CITY           SKY/WX    TMP DP  RH WIND       PRES   REMARKS
HAVRE          CLOUDY    37  25  62 NW22G32   29.98R WCI  26
LEWISTOWN      CLOUDY    32  27  82 W17       29.99R WCI  21
* N BAR RANCH  CLOUDY    30  25  82 NW20G25   29.95R WCI  17
* CHESTER      N/A       35  23  62 N17G28     N/A   WCI  25
* DENTON       N/A       34  25  70 NW16       N/A   WCI  24
* GEYSER       N/A       29  28  96 W12G17     N/A   WCI  19
* JUDITH GAP   N/A       27  27 100 NW26G33    N/A   WCI  12
* LOMA         N/A       39  23  53 W11G16     N/A   WCI  32
$$

MTZ017>020-022>027-061-062-252200-
NORTHEAST MONTANA
CITY           SKY/WX    TMP DP  RH WIND       PRES   REMARKS
GLASGOW        CLOUDY    34  27  76 N21       29.85R WCI  22
GLENDIVE       CLOUDY    36  28  73 W25G35    29.77R WCI  24
JORDAN         PTSUNNY   36  27  70 NW26G38   29.86R WCI  24
SIDNEY         PTCLDY    37  27  67 W24G32    29.74R WCI  26
WOLF POINT     CLOUDY    36  28  73 NW23G32   29.81R WCI  24
* BEAVER HILL  N/A       36  28  73 W37G44     N/A   WCI  22
* CIRCLE       N/A       36  33  89 W10G15     N/A   WCI  29
* LINDSAY DVD  N/A       34  27  76 NW24G30    N/A   WCI  22
* NAVAJO       N/A       26  23  88 N20G27     N/A   WCI  12
$$

MTZ028>042-056>058-252200-
SOUTHCENTRAL AND SOUTHEAST MONTANA
CITY           SKY/WX    TMP DP  RH WIND       PRES   REMARKS
BAKER          CLOUDY    36  30  79 NW17      29.76R WCI  26
BILLINGS       CLOUDY    34  28  79 N23G33    29.97R WCI  22
LIVINGSTON     SNOW      34 N/A N/A NW16G23   30.00R VSB 1/2  WCI  24
MILES CITY     CLOUDY    39  27  62 NW23      29.83R WCI  28
* LAUREL APT   CLOUDY    39  28  65 NW14       N/A   WCI  31
* ALZADA       N/A       34  31  89 W14G20     N/A   WCI  24
* HYSHAM       N/A       36  25  64 W11G21     N/A   WCI  28
* LAME DEER    N/A       31  29  92 NW11G20    N/A   WCI  22
* REED POINT   N/A       35  31  85 N9G22      N/A   WCI  28
* ROSCOE HILL  N/A       30  27  89 SE4        N/A
$$

REGIONAL REPORTS...DAKOTAS
CITY           SKY/WX    TMP DP  RH WIND       PRES   REMARKS
WILLISTON      LGT SNOW  34  28  79 NW17      29.72R WCI  23
DICKINSON      CLOUDY    36  32  85 W18       29.66R WCI  26
BEACH          CLOUDY    36  30  79 NW29G38   29.73R WCI  23
CROSBY         LGT SNOW  25  25 100 NE21      29.79R VSB 1    WCI  10
BISMARCK       LGT SNOW  32  30  92 S9        29.70F VSB 1 1/4 WCI  24
GRAND FORKS    CLOUDY    21  16  81 E8        29.93S WCI  11
FARGO          CLOUDY    27  18  69 SE10      29.91F WCI  18
BUFFALO SD     PTSUNNY   37  30  76 NW32G40   29.67R WCI  24
RAPID CITY     CLOUDY    37  30  76 NW21      29.77R WCI  26
$$

REGIONAL REPORTS...WYOMING/IDAHO/WASHINGTON
CITY           SKY/WX    TMP DP  RH WIND       PRES   REMARKS
GILLETTE       LGT SNOW  32  30  92 NW20      29.86R VSB 1/2  WCI  20
SHERIDAN       LGT SNOW  34  30  85 NW21      29.91R VSB 1 1/2 WCI  22
CODY           CLOUDY    30  28  92 N13       29.94R VSB 3    WCI  20
YELLOWSTONE LA CLOUDY    28  25  89 VRB3      30.00S
SALMON         CLOUDY    36  32  85 CALM      30.09R
MULLAN PASS    SNOW      30  27  89 N3        30.07S VSB M1/4
SAND POINT     CLOUDY    37  37 100 N6        30.14F WCI  32
SPOKANE        CLOUDY    39  34  82 N5        30.19R WCI  35
$$

REGIONAL REPORTS...ALBERTA
CITY           SKY/WX    TMP DP  RH WIND       PRES   REMARKS
EDMONTON       CLOUDY    19  14  81 N7        30.10R WCI  10

$$




USA.gov is the U.S. government's official web portal to all federal, state and local government web resources and services.